Total_Precipitation_Accumulation
0.50 0.53 0.56 0.36 0.28 0.28 0.21 0.16 0.25 0.25 0.28 0.19 0.17 0.17 0.12 0.08 0.08 0.00 0.00 0.00 0.00 0.06 0.19 0.27 0.14 0.14 0.24 0.19 0.06 0.06 -0.00 -0.01 0.02 0.02 0.06 0.02 0.02 0.00 0.00 0.07 0.07 0.11 0.03 0.01 0.00 0.00 0.00 0.00 0.00 0.00 0.00 0.00 0.00 0.00 0.00 0.00 0.00 0.00 0.00 0.01 0.01 0.02 0.04 0.04 0.02 0.02 0.00 0.00 0.00 0.00 0.00 0.00 0.00 0.00 0.00 0.00 0.00 0.00 0.00 0.00 0.00 0.01 0.02 0.02 0.00 0.00 0.00 0.00 0.00 0.00 0.00 -0.00 0.00 0.00 0.01 0.01 0.01 -0.01 -0.02 0.00 0.00 0.00 0.00
0.48 0.54 0.58 0.50 0.35 0.35 0.24 0.17 0.19 0.19 0.30 0.20 0.19 0.19 0.15 0.10 0.10 0.00 0.00 0.00 0.00 0.02 0.19 0.24 0.17 0.17 0.20 0.20 0.04 0.04 0.01 -0.00 -0.00 -0.00 0.05 0.02 0.02 0.00 0.00 0.06 0.06 0.07 0.03 0.01 0.00 0.00 0.00 0.00 0.00 0.00 0.00 0.00 0.00 0.00 0.00 0.00 0.00 0.00 0.00 0.01 0.01 0.02 0.04 0.03 0.00 0.00 0.00 0.00 0.00 0.00 0.00 -0.05 -0.01 -0.01 0.00 0.00 0.00 0.00 0.00 0.00 0.00 0.02 0.02 0.02 0.00 0.00 0.00 0.00 0.00 0.00 0.02 0.04 0.10 0.10 0.06 0.02 0.02 0.01 0.00 0.00 0.00 0.00 0.00
0.46 0.55 0.59 0.57 0.53 0.53 0.36 0.27 0.21 0.21 0.29 0.26 0.25 0.25 0.17 0.11 0.11 0.00 0.00 0.00 0.00 0.00 0.08 0.22 0.30 0.30 0.18 0.15 0.03 0.03 0.02 0.01 0.00 0.00 0.04 0.02 0.02 0.00 0.00 0.05 0.05 0.05 0.02 0.01 0.00 0.00 0.00 0.00 0.00 0.00 0.00 0.00 0.00 0.00 0.00 0.00 0.00 0.00 0.00 0.01 0.01 0.03 0.04 0.02 0.01 0.01 -0.01 -0.02 -0.05 -0.05 -0.08 -0.06 -0.03 -0.03 -0.01 0.00 0.00 -0.01 0.00 0.01 0.01 0.02 0.03 0.02 0.00 0.00 0.00 0.00 0.00 0.00 0.02 0.10 0.10 0.10 0.04 0.00 0.00 0.00 0.00 0.00 0.00 -0.00 -0.00
0.43 0.54 0.61 0.61 0.57 0.57 0.40 0.32 0.23 0.23 0.25 0.35 0.28 0.28 0.24 0.13 0.13 0.06 0.00 0.00 0.00 0.00 0.07 0.21 0.31 0.31 0.18 0.20 0.04 0.04 0.02 0.01 0.00 0.00 0.03 0.02 0.02 0.00 0.00 0.00 0.00 0.03 0.03 0.01 0.00 0.00 0.00 0.00 0.00 0.00 0.00 0.00 0.00 0.00 0.00 0.00 0.00 0.00 0.00 0.01 0.01 0.03 0.04 0.01 -0.01 -0.01 -0.04 -0.05 -0.06 -0.06 -0.08 0.00 0.00 0.00 0.00 -0.02 -0.02 -0.06 -0.02 0.01 0.01 0.02 0.02 0.01 0.00 0.00 0.00 -0.00 0.01 0.01 0.02 0.09 0.05 0.05 0.03 0.00 0.00 0.00 0.00 -0.03 -0.03 -0.01 0.00
0.46 0.50 0.59 0.60 0.59 0.59 0.53 0.37 0.24 0.24 0.24 0.35 0.32 0.32 0.28 0.15 0.15 0.09 0.00 0.00 0.00 0.01 0.06 0.21 0.28 0.28 0.20 0.22 0.04 0.04 0.02 0.00 0.00 0.00 0.01 0.02 0.02 0.06 0.00 0.00 0.00 0.02 0.02 0.00 0.00 0.00 0.00 0.00 0.00 0.00 0.00 0.00 0.00 0.00 0.00 0.00 0.00 0.00 0.00 0.01 0.01 0.03 0.03 0.01 -0.03 -0.03 0.00 0.00 0.00 0.00 0.00 0.00 0.00 0.00 -0.00 -0.02 -0.02 -0.03 -0.02 0.01 0.01 0.03 0.03 0.00 0.00 0.00 -0.00 -0.02 -0.00 -0.00 0.07 0.09 0.03 0.03 0.01 0.00 0.00 0.00 -0.00 0.00 0.00 0.00 0.00
0.48 0.48 0.53 0.53 0.62 0.62 0.55 0.43 0.29 0.29 0.23 0.31 0.36 0.36 0.30 0.17 0.17 0.10 0.02 0.00 0.00 0.02 0.07 0.19 0.25 0.25 0.24 0.25 0.15 0.15 0.02 0.01 0.00 0.00 0.00 0.02 0.02 0.01 0.00 0.00 0.00 0.02 0.01 0.00 0.00 0.00 0.00 0.00 0.00 0.00 0.00 0.00 0.00 0.00 0.00 0.00 0.00 0.00 0.00 0.01 0.01 0.02 0.02 0.01 0.00 0.00 0.00 0.00 0.00 0.00 0.00 0.00 -0.00 -0.00 -0.01 0.00 0.00 0.00 0.00 0.01 0.01 0.04 0.02 0.01 -0.00 -0.00 -0.01 -0.06 -0.04 -0.04 0.11 0.07 0.03 0.03 0.00 0.00 0.00 0.00 0.00 0.00 0.00 0.00 0.00
0.50 0.49 0.49 0.54 0.65 0.65 0.60 0.48 0.33 0.33 0.21 0.28 0.34 0.34 0.36 0.19 0.19 0.15 0.03 0.00 0.00 0.04 0.08 0.12 0.20 0.20 0.27 0.23 0.14 0.14 0.01 0.00 0.00 0.00 0.00 0.02 0.02 0.02 0.00 0.00 0.00 0.00 0.01 0.00 0.00 0.00 0.00 0.00 0.00 0.00 0.00 0.00 0.00 0.00 0.00 0.00 0.00 0.00 0.00 0.02 0.02 0.03 0.03 0.00 0.00 0.00 0.00 0.00 0.00 0.00 0.00 0.00 0.00 0.00 0.00 0.00 0.00 0.00 0.01 0.01 0.01 0.03 0.02 0.00 -0.00 -0.00 -0.01 -0.02 -0.00 -0.00 0.09 0.04 0.01 0.01 0.00 0.00 0.00 0.00 0.00 0.00 0.00 0.00 0.00
0.54 0.63 0.60 0.57 0.60 0.60 0.64 0.51 0.40 0.40 0.28 0.29 0.32 0.32 0.34 0.22 0.22 0.17 0.09 0.01 0.01 0.00 0.08 0.11 0.19 0.19 0.23 0.25 0.14 0.14 0.01 0.00 0.00 0.00 0.00 0.01 0.01 0.02 0.03 0.00 0.00 0.00 0.01 0.00 0.00 0.00 0.00 0.00 0.00 0.00 0.00 0.00 0.00 0.00 0.00 0.00 0.00 0.00 0.00 0.00 0.00 0.03 0.04 0.00 0.00 0.00 0.00 0.00 0.00 0.00 0.00 0.00 0.00 0.00 0.00 0.00 0.00 0.00 0.00 0.02 0.02 0.04 0.03 0.00 -0.00 -0.00 -0.01 -0.01 -0.01 -0.01 0.10 0.05 0.00 0.00 0.00 0.00 0.00 0.00 0.00 0.00 0.00 0.00 0.00
0.73 0.70 0.66 0.60 0.60 0.60 0.62 0.55 0.41 0.41 0.25 0.17 0.33 0.33 0.36 0.33 0.33 0.20 0.11 0.02 0.02 0.00 0.08 0.12 0.19 0.19 0.17 0.25 0.13 0.13 0.07 0.00 0.00 0.00 0.00 0.00 0.00 0.02 0.04 0.00 0.00 0.00 0.02 0.00 0.00 0.00 -0.00 0.00 0.00 0.00 0.00 0.00 0.00 0.00 0.00 0.00 0.00 0.00 0.00 0.00 0.00 0.03 0.04 0.01 0.00 0.00 0.00 0.00 0.00 0.00 0.00 0.00 0.00 0.00 0.00 0.00 0.00 0.00 0.01 0.01 0.01 0.05 0.02 -0.00 0.00 0.00 -0.00 0.02 0.07 0.07 0.10 0.04 0.00 0.00 0.00 0.00 0.00 0.00 0.00 0.00 0.00 0.00 0.00
0.76 0.73 0.62 0.56 0.60 0.60 0.61 0.57 0.45 0.45 0.29 0.15 0.19 0.19 0.38 0.38 0.38 0.27 0.15 0.03 0.03 0.00 0.09 0.14 0.21 0.21 0.13 0.18 0.11 0.11 0.08 0.00 0.00 0.00 0.00 0.00 0.00 0.02 0.03 0.04 0.04 0.00 0.02 0.00 0.00 0.00 0.00 0.00 0.00 0.00 0.00 0.00 0.00 0.00 0.00 0.00 0.00 0.00 0.00 0.01 0.01 0.02 0.03 0.00 0.00 0.00 0.00 0.00 0.00 0.00 0.00 0.00 0.00 0.00 0.00 0.00 0.00 0.00 0.01 0.02 0.02 0.04 0.02 0.01 0.00 0.00 -0.00 0.03 0.10 0.10 0.11 0.02 0.00 0.00 0.00 0.00 0.00 0.00 0.00 0.00 0.00 0.00 0.00
0.88 0.80 0.69 0.63 0.57 0.57 0.62 0.55 0.51 0.51 0.32 0.30 0.16 0.16 0.42 0.41 0.41 0.34 0.20 0.04 0.04 0.01 0.10 0.17 0.13 0.13 0.16 0.17 0.14 0.14 0.09 0.00 0.00 0.00 0.00 0.00 0.00 0.01 0.04 0.05 0.05 0.00 0.02 0.00 0.00 0.00 0.00 0.00 0.00 0.00 0.00 0.00 0.00 0.00 0.00 0.00 0.00 0.00 0.00 0.01 0.01 0.03 0.03 0.00 0.00 0.00 0.00 0.00 0.00 0.00 0.00 0.00 0.00 0.00 0.00 0.00 0.00 0.00 0.01 0.03 0.03 0.05 0.01 0.01 0.00 0.00 0.02 0.05 0.11 0.11 0.09 0.04 0.00 0.00 0.00 0.00 0.00 0.00 0.00 0.00 0.00 0.00 0.00
0.96 0.91 0.74 0.71 0.65 0.65 0.66 0.66 0.52 0.52 0.38 0.20 0.14 0.14 0.39 0.40 0.40 0.36 0.27 0.14 0.14 0.01 0.10 0.17 0.21 0.21 0.19 0.16 0.20 0.20 0.09 0.02 0.00 0.00 0.00 0.00 0.00 0.00 0.04 0.06 0.06 0.00 0.02 0.02 0.00 0.00 0.00 0.00 0.00 0.00 0.00 0.00 0.00 0.00 0.00 0.00 0.00 0.00 0.00 0.00 0.00 0.03 0.05 0.00 0.00 0.00 0.00 0.00 0.00 0.00 0.00 0.00 0.00 0.00 0.00 0.00 0.00 0.00 0.01 0.04 0.04 0.06 0.04 0.01 0.01 0.01 0.02 0.07 0.10 0.10 0.08 0.03 0.00 0.00 0.00 0.00 0.00 0.00 0.00 0.00 0.00 0.00 0.00
1.06 0.94 0.78 0.72 0.69 0.69 0.70 0.70 0.58 0.58 0.46 0.27 0.19 0.19 0.39 0.34 0.34 0.34 0.28 0.19 0.19 0.03 0.10 0.17 0.24 0.24 0.23 0.16 0.35 0.35 0.10 0.03 0.00 0.00 0.00 0.00 0.00 0.00 0.02 0.06 0.06 0.02 0.01 0.02 0.00 0.00 0.00 0.00 0.00 0.00 0.00 0.00 0.00 0.00 0.00 0.00 0.00 0.00 0.00 0.00 0.00 0.04 0.07 0.03 0.00 0.00 0.00 0.00 0.00 0.00 0.00 0.00 0.00 0.00 0.00 0.00 0.00 0.00 0.01 0.01 0.01 0.05 0.03 0.02 0.01 0.01 0.03 0.09 0.11 0.11 0.09 0.01 0.00 0.00 0.00 0.00 0.00 0.00 0.00 0.00 0.00 0.00 0.00
1.12 1.05 0.93 0.71 0.64 0.64 0.66 0.69 0.65 0.65 0.57 0.40 0.25 0.25 0.40 0.34 0.34 0.33 0.29 0.20 0.20 0.05 0.11 0.18 0.27 0.27 0.27 0.20 0.37 0.37 0.13 0.04 0.02 0.02 0.00 0.00 0.00 0.00 0.02 0.04 0.04 0.01 0.00 0.01 0.00 0.00 0.00 0.00 0.00 0.00 0.00 0.00 0.00 0.00 0.00 0.00 0.00 0.00 0.00 0.00 0.00 0.03 0.05 0.02 0.00 0.00 0.00 0.00 0.00 0.00 0.00 0.00 0.00 0.00 0.00 0.00 0.00 0.00 0.00 0.01 0.01 0.02 0.03 0.01 0.01 0.01 0.04 0.07 0.10 0.10 0.08 0.03 0.00 0.00 0.00 0.00 0.00 0.00 0.00 0.00 0.00 0.00 0.00
1.28 1.12 1.05 0.76 0.69 0.69 0.65 0.68 0.64 0.64 0.61 0.45 0.44 0.44 0.51 0.38 0.38 0.34 0.32 0.24 0.24 0.08 0.14 0.13 0.27 0.27 0.30 0.29 0.33 0.33 0.17 0.05 0.06 0.06 0.00 0.00 0.00 0.00 0.01 0.02 0.02 0.00 0.00 0.01 0.00 0.00 0.00 0.00 0.00 0.00 0.00 0.00 0.00 0.00 0.00 0.00 0.00 0.00 0.00 0.01 0.01 0.04 0.04 0.03 0.00 0.00 0.00 0.00 0.00 0.00 0.00 0.00 0.00 0.00 0.00 0.00 0.00 0.00 0.00 0.00 0.00 0.01 0.02 0.01 0.02 0.02 0.04 0.08 0.11 0.11 0.07 0.02 0.01 0.01 0.00 0.00 0.00 0.00 0.00 0.00 0.00 0.00 0.00
1.21 1.16 1.08 0.77 0.72 0.72 0.63 0.62 0.62 0.62 0.58 0.47 0.48 0.48 0.55 0.49 0.49 0.40 0.33 0.25 0.25 0.21 0.18 0.12 0.28 0.28 0.29 0.32 0.31 0.31 0.25 0.07 0.07 0.07 0.02 0.00 0.00 0.00 0.01 0.02 0.02 0.00 0.00 0.01 0.00 0.00 0.00 0.00 0.00 0.00 0.00 0.00 0.00 0.00 0.00 0.00 0.00 0.00 0.00 0.01 0.01 0.05 0.12 0.03 0.00 0.00 0.00 0.00 0.00 0.00 0.00 0.00 0.00 0.00 0.00 0.00 0.00 0.00 0.00 0.00 0.00 0.00 0.01 0.01 0.03 0.03 0.05 0.10 0.11 0.11 0.09 0.02 0.00 0.00 0.00 0.00 0.00 0.00 0.00 0.00 0.00 0.00 0.00
1.12 1.18 1.11 0.94 0.78 0.78 0.62 0.55 0.55 0.55 0.55 0.57 0.54 0.54 0.51 0.58 0.58 0.45 0.33 0.26 0.26 0.22 0.19 0.18 0.27 0.27 0.33 0.36 0.29 0.29 0.26 0.13 0.07 0.07 0.01 0.00 0.00 0.00 0.00 0.01 0.01 0.00 0.00 0.00 0.00 0.00 0.00 0.00 0.00 0.00 0.00 0.00 0.00 0.00 0.00 0.00 0.00 0.00 0.00 0.00 0.00 0.10 0.14 0.04 0.00 0.00 0.00 0.00 0.00 0.00 0.00 0.00 0.00 0.00 0.00 0.00 0.00 0.00 0.00 0.00 0.00 0.00 0.01 0.00 0.05 0.05 0.06 0.05 0.10 0.10 0.08 0.03 0.00 0.00 0.00 0.00 0.00 0.00 0.00 0.00 0.00 0.00 0.00
0.99 1.19 1.21 1.03 0.91 0.91 0.64 0.53 0.49 0.49 0.57 0.55 0.53 0.53 0.48 0.66 0.66 0.59 0.35 0.27 0.27 0.16 0.18 0.18 0.16 0.16 0.35 0.37 0.29 0.29 0.29 0.21 0.10 0.10 0.04 0.00 0.00 0.00 0.00 0.00 0.00 0.00 0.00 0.00 0.00 0.00 0.00 0.00 0.00 0.00 0.00 0.00 0.00 0.00 -0.00 0.00 0.00 0.00 0.00 0.00 0.00 0.02 0.13 0.09 0.00 0.00 0.00 0.00 0.00 0.00 0.00 0.00 0.00 0.00 0.00 0.00 0.00 0.00 0.00 0.00 0.00 0.00 0.01 0.01 0.02 0.02 0.06 0.04 0.07 0.07 0.06 0.02 0.01 0.01 0.00 0.00 0.00 0.00 0.00 0.00 0.00 0.00 0.00
0.91 1.12 1.19 1.06 0.89 0.89 0.81 0.56 0.48 0.48 0.47 0.53 0.62 0.62 0.58 0.72 0.72 0.69 0.51 0.26 0.26 0.21 0.18 0.19 0.17 0.17 0.33 0.39 0.36 0.36 0.22 0.20 0.10 0.10 0.05 0.00 0.00 0.00 0.00 0.00 0.00 0.00 0.00 0.00 0.00 0.00 0.00 0.00 0.00 0.00 0.00 0.00 0.00 0.00 -0.00 0.00 0.00 0.00 0.00 0.00 0.00 0.03 0.11 0.08 0.03 0.03 0.00 0.00 0.00 0.00 0.00 0.00 0.00 0.00 0.00 0.00 0.00 0.00 0.00 0.00 0.00 0.00 0.01 0.01 0.05 0.05 0.08 0.03 0.04 0.04 0.05 0.01 0.00 0.00 0.00 0.00 0.00 0.00 0.00 0.00 0.00 0.00 0.00
1.17 0.98 1.09 1.19 1.01 1.01 0.87 0.66 0.60 0.60 0.38 0.39 0.66 0.66 0.71 0.80 0.80 0.78 0.72 0.50 0.50 0.18 0.20 0.27 0.26 0.26 0.43 0.47 0.48 0.48 0.28 0.19 0.17 0.17 0.11 0.04 0.04 0.00 0.00 0.01 0.01 0.00 0.00 0.00 0.00 0.00 0.00 0.00 0.00 0.00 0.00 0.00 0.00 0.00 0.00 0.00 0.00 0.00 0.00 0.00 0.00 0.02 0.13 0.04 0.02 0.02 0.00 0.00 0.00 0.00 0.00 0.00 0.00 0.00 0.00 0.00 0.00 0.00 0.00 0.00 0.00 0.00 0.01 0.00 0.02 0.02 0.08 0.02 -0.01 -0.01 0.01 -0.01 -0.01 -0.01 -0.00 -0.03 -0.03 0.00 0.00 0.00 0.00 0.00 0.00
1.27 1.22 1.13 1.18 1.06 1.06 0.95 0.80 0.79 0.79 0.62 0.46 0.70 0.70 0.74 0.71 0.71 0.77 0.75 0.60 0.60 0.18 0.28 0.30 0.30 0.30 0.38 0.44 0.43 0.43 0.31 0.17 0.20 0.20 0.13 0.06 0.06 0.00 0.00 0.00 0.00 0.00 0.00 0.00 0.00 0.00 0.00 0.00 0.00 0.00 0.00 0.00 0.00 0.00 0.00 0.00 0.00 0.00 0.00 0.00 0.00 0.01 0.10 0.08 0.01 0.01 0.00 0.00 0.00 0.00 0.00 0.00 0.00 0.00 0.00 0.00 0.00 0.00 0.00 0.00 0.00 0.00 0.01 0.01 0.03 0.03 0.09 0.02 0.01 0.01 -0.02 -0.02 -0.05 -0.05 -0.07 -0.05 -0.05 -0.01 0.00 0.00 0.00 0.00 0.00
1.32 1.27 1.24 1.20 1.16 1.16 1.08 0.94 0.85 0.85 0.64 0.54 0.69 0.69 0.76 0.67 0.67 0.72 0.83 0.76 0.76 0.44 0.28 0.28 0.29 0.29 0.38 0.40 0.47 0.47 0.57 0.20 0.23 0.23 0.17 0.10 0.10 0.03 0.00 0.00 0.00 0.01 0.00 0.01 0.00 0.00 0.00 0.00 0.00 0.00 0.00 0.00 0.00 0.00 0.00 0.00 0.00 0.00 0.00 0.00 0.00 0.00 0.06 0.05 0.01 0.01 0.00 0.00 0.00 0.00 0.00 0.00 0.00 0.00 0.00 0.00 0.00 0.00 0.00 0.00 0.00 0.00 0.02 0.00 0.04 0.04 0.10 0.02 0.01 0.01 -0.00 -0.04 -0.02 -0.02 -0.05 -0.04 -0.04 -0.01 0.00 0.00 0.00 0.00 0.00
1.50 1.27 1.18 1.14 1.13 1.13 1.13 0.95 0.91 0.91 0.57 0.47 0.69 0.69 0.74 0.57 0.57 0.54 0.96 0.81 0.81 0.44 0.30 0.19 0.25 0.25 0.36 0.36 0.34 0.34 0.52 0.19 0.19 0.19 0.21 0.14 0.14 0.05 0.00 0.00 0.00 0.01 0.00 0.00 0.00 0.00 0.00 0.00 0.00 0.00 0.00 0.00 0.00 0.00 0.00 0.00 0.00 0.00 0.00 0.00 0.00 0.00 0.00 0.01 0.01 0.01 0.00 0.00 0.00 0.00 0.00 0.00 0.00 0.00 0.00 0.00 0.00 0.00 0.00 0.00 0.00 0.00 0.01 0.00 0.05 0.05 0.09 0.04 0.00 0.00 0.00 0.00 -0.05 -0.05 -0.02 -0.01 -0.01 -0.01 0.00 0.00 0.00 0.00 0.00
1.77 1.47 1.12 1.08 1.05 1.05 1.10 1.09 0.87 0.87 0.62 0.47 0.53 0.53 0.71 0.72 0.72 0.57 1.01 0.88 0.88 0.61 0.29 0.17 0.27 0.27 0.40 0.35 0.31 0.31 0.32 0.18 0.14 0.14 0.15 0.13 0.13 0.07 0.02 0.00 0.00 0.01 0.00 0.00 0.00 0.00 0.00 0.00 0.00 0.00 0.00 0.00 0.00 0.00 0.00 0.00 0.00 0.00 0.00 0.00 0.00 0.00 0.00 0.00 0.00 0.00 0.00 0.00 0.00 0.00 0.00 0.00 0.00 0.00 0.00 0.00 0.00 0.00 0.00 0.00 0.00 0.00 0.01 0.00 0.01 0.01 0.07 0.03 0.01 0.01 0.00 0.00 0.00 0.00 -0.05 -0.04 -0.04 -0.00 -0.00 0.00 0.00 -0.00 0.00
1.94 1.86 1.08 0.96 0.97 0.97 1.00 0.97 0.97 0.97 0.74 0.47 0.55 0.55 0.58 0.85 0.85 0.70 0.85 0.94 0.94 0.74 0.28 0.15 0.09 0.09 0.39 0.34 0.29 0.29 0.32 0.27 0.13 0.13 0.12 0.15 0.15 0.07 0.03 0.00 0.00 0.00 0.00 0.00 0.00 0.00 0.00 0.00 0.00 0.00 0.00 0.00 0.00 0.00 0.00 0.00 0.00 0.00 0.00 0.00 0.00 0.00 0.00 0.00 0.00 0.00 0.00 0.00 0.00 0.00 0.00 0.00 0.00 0.00 0.00 0.00 0.00 0.00 0.00 0.00 0.00 0.00 0.00 0.00 0.00 0.00 0.02 0.03 0.01 0.01 0.00 0.00 0.00 0.00 -0.01 -0.05 -0.05 -0.02 -0.00 -0.01 -0.01 -0.01 -0.00
1.86 1.93 1.36 1.00 0.89 0.89 0.90 0.88 0.99 0.99 0.83 0.58 0.58 0.58 0.57 0.95 0.95 0.81 0.71 0.84 0.84 0.78 0.29 0.18 0.14 0.14 0.28 0.30 0.28 0.28 0.30 0.25 0.14 0.14 0.08 0.13 0.13 0.07 0.03 0.00 0.00 0.00 0.00 0.00 0.00 0.00 0.00 0.00 0.00 0.00 0.00 0.00 0.00 0.00 0.00 0.00 0.00 0.00 0.00 0.00 0.00 0.00 0.00 0.00 0.00 0.00 0.00 0.00 0.01 0.01 0.00 0.00 0.00 0.00 0.00 0.00 0.00 0.00 0.00 0.00 0.00 0.00 0.00 0.00 0.00 0.00 0.01 0.01 0.01 0.01 0.00 0.00 0.00 0.00 -0.00 -0.03 -0.03 -0.03 -0.01 -0.01 -0.01 -0.03 -0.01
2.07 1.96 1.41 1.36 1.24 1.24 0.84 0.87 0.95 0.95 0.84 0.59 0.63 0.63 0.62 0.86 0.86 1.03 0.83 0.92 0.92 0.73 0.65 0.25 0.18 0.18 0.20 0.27 0.26 0.26 0.25 0.23 0.14 0.14 0.07 0.10 0.10 0.06 0.02 0.00 0.00 0.00 0.00 0.00 0.00 0.00 0.00 0.00 0.00 0.00 0.00 0.00 0.00 0.00 0.00 0.00 0.00 0.00 0.00 0.00 0.00 0.00 0.00 0.00 0.00 0.00 0.00 0.00 0.00 0.00 0.00 0.00 0.00 0.00 0.00 0.00 0.00 0.00 0.00 0.00 0.00 0.00 0.00 0.00 0.00 0.00 0.00 0.00 0.01 0.01 0.00 0.00 0.00 0.00 -0.00 -0.02 -0.02 -0.05 -0.02 -0.01 -0.01 -0.05 -0.02
2.23 2.26 1.52 1.71 1.50 1.50 0.84 0.80 0.82 0.82 0.87 0.65 0.62 0.62 0.67 0.61 0.61 1.03 0.97 1.03 1.03 0.82 0.72 0.28 0.20 0.20 0.15 0.18 0.18 0.18 0.20 0.22 0.17 0.17 0.08 0.09 0.09 0.09 0.01 0.00 0.00 0.00 0.00 0.00 0.00 0.00 0.00 0.00 0.00 0.00 0.00 0.00 0.00 0.00 0.00 0.00 0.00 0.00 0.00 0.00 0.00 0.00 0.00 0.00 0.00 0.00 0.00 0.00 0.00 0.00 0.00 0.00 0.00 0.00 0.00 0.00 0.00 0.00 0.00 0.00 0.00 0.00 0.00 0.00 0.00 0.00 0.00 0.00 0.00 0.00 0.00 0.00 0.00 0.00 0.00 -0.01 -0.01 -0.03 -0.00 0.00 0.00 -0.06 -0.05
2.75 2.80 2.79 2.31 1.82 1.82 1.08 0.71 0.82 0.82 0.87 0.78 0.66 0.66 0.68 0.68 0.68 0.91 0.90 1.06 1.06 0.84 0.68 0.38 0.22 0.22 0.14 0.12 0.12 0.12 0.20 0.17 0.16 0.16 0.10 0.07 0.07 0.02 0.00 0.00 0.00 0.00 0.00 0.00 0.00 0.00 0.00 0.00 0.00 0.00 0.00 0.00 0.00 0.00 0.00 0.00 0.00 0.00 0.00 0.00 0.00 0.00 0.00 0.00 0.00 0.00 0.00 0.00 0.00 0.00 0.00 0.00 0.00 0.00 0.00 0.00 0.00 0.00 0.00 0.00 0.00 0.00 0.00 0.00 0.00 0.00 0.00 0.00 0.00 0.00 0.00 0.00 0.00 0.00 0.00 0.00 0.00 0.02 0.03 0.02 0.02 -0.08 -0.14
2.46 2.38 3.22 3.14 2.47 2.47 1.53 0.85 0.75 0.75 0.94 0.83 0.64 0.64 0.67 0.71 0.71 0.67 0.64 1.00 1.00 0.86 0.65 0.58 0.29 0.29 0.13 0.10 0.09 0.09 0.12 0.13 0.15 0.15 0.17 0.06 0.06 0.01 0.00 0.00 0.00 0.00 0.00 0.00 0.00 0.00 0.00 0.00 0.00 0.00 0.00 0.00 0.00 0.00 0.00 0.00 0.00 0.00 0.00 0.00 0.00 0.00 0.00 0.01 0.00 0.00 0.00 0.00 0.00 0.00 0.00 0.00 0.00 0.00 0.00 0.00 0.00 0.00 0.00 0.00 0.00 0.00 0.00 0.00 0.00 0.00 0.00 0.00 0.00 0.00 0.00 0.00 0.00 0.00 0.00 0.00 0.00 0.02 0.04 0.02 0.02 0.01 -0.03
1.44 1.37 2.19 3.36 3.28 3.28 2.15 1.41 0.99 0.99 1.11 0.96 0.64 0.64 0.61 0.70 0.70 0.66 0.63 0.87 0.87 0.91 0.74 0.60 0.33 0.33 0.15 0.05 0.07 0.07 0.08 0.12 0.11 0.11 0.15 0.04 0.04 0.01 0.00 0.00 0.00 0.00 0.00 0.00 0.00 0.00 0.00 0.00 0.00 0.00 0.00 0.00 0.00 0.00 0.00 0.00 0.00 0.00 0.00 0.00 0.00 0.00 0.00 0.00 0.01 0.01 0.01 0.00 0.00 0.00 0.00 0.00 0.00 0.00 0.00 0.00 0.00 0.00 0.00 0.00 0.00 0.00 0.00 0.00 0.00 0.00 0.00 0.00 0.00 0.00 0.00 0.00 0.00 0.00 0.00 0.00 0.00 0.03 0.07 0.01 0.01 0.02 0.02
0.17 0.73 1.36 2.93 3.60 3.60 3.44 2.19 1.55 1.55 1.20 1.16 0.74 0.74 0.49 0.59 0.59 0.61 0.84 0.90 0.90 0.79 0.68 0.61 0.31 0.31 0.14 0.04 0.06 0.06 0.06 0.11 0.11 0.11 0.11 0.07 0.07 0.01 0.00 0.00 0.00 0.00 0.00 0.00 0.00 0.00 0.00 0.00 0.00 0.00 0.00 0.00 0.00 0.00 0.00 0.00 0.00 0.00 0.00 0.00 0.00 0.00 0.00 0.01 0.02 0.02 0.00 0.01 0.00 0.00 0.00 0.00 0.00 0.00 0.00 0.00 0.00 0.00 0.00 0.00 0.00 0.00 0.00 0.00 0.00 0.00 0.00 0.00 0.00 0.00 0.00 0.00 0.00 0.00 0.00 0.00 0.00 0.04 0.06 0.03 0.03 0.02 0.02
-0.03 0.12 0.74 1.95 2.86 2.86 3.36 2.80 2.17 2.17 1.33 1.23 0.97 0.97 0.41 0.39 0.39 0.45 0.94 1.13 1.13 0.93 0.56 0.52 0.41 0.41 0.10 0.02 0.06 0.06 0.07 0.09 0.10 0.10 0.09 0.05 0.05 0.00 0.00 0.00 0.00 0.00 0.00 0.00 0.00 0.00 0.00 0.00 0.00 0.00 0.00 0.00 0.00 0.00 0.00 0.00 0.00 0.00 0.00 0.00 0.00 0.00 0.00 0.00 0.02 0.02 0.01 0.00 0.00 0.00 0.00 0.00 0.00 0.00 0.00 0.00 0.00 0.00 0.00 0.00 0.00 0.00 0.00 0.00 0.00 0.00 0.00 0.00 0.00 0.00 0.00 0.00 0.00 0.00 0.00 0.00 0.00 0.00 0.06 0.03 0.03 0.01 0.02
-0.17 -0.01 0.29 1.48 1.99 1.99 2.71 3.08 2.51 2.51 2.09 1.42 1.20 1.20 0.47 0.42 0.42 0.41 0.80 1.13 1.13 1.29 0.58 0.48 0.36 0.36 0.08 0.01 0.04 0.04 0.07 0.09 0.10 0.10 0.07 0.03 0.03 0.00 0.01 0.00 0.00 0.00 0.00 0.00 0.00 0.00 0.00 0.00 0.00 0.00 0.00 0.00 0.00 0.00 0.00 0.00 0.00 0.00 0.00 0.00 0.00 0.00 0.00 0.00 0.02 0.02 0.01 0.00 0.00 0.00 0.00 0.00 0.00 0.00 0.00 0.00 0.00 0.00 0.00 0.00 0.00 0.00 0.00 0.00 0.00 0.00 0.00 0.00 0.00 0.00 0.00 0.00 0.00 0.00 0.00 0.00 0.00 0.00 0.04 0.04 0.04 0.01 0.03
-1.17 -0.22 -0.09 1.23 1.62 1.62 2.00 2.83 2.82 2.82 2.47 1.72 1.46 1.46 1.03 0.52 0.52 0.48 0.59 1.09 1.09 1.60 0.83 0.53 0.35 0.35 0.09 0.06 0.04 0.04 0.11 0.10 0.09 0.09 0.05 0.02 0.02 0.01 0.00 0.00 0.00 0.00 0.00 0.00 0.00 0.00 0.00 0.00 0.00 0.00 0.00 0.00 0.00 0.00 0.00 0.00 0.00 0.00 0.00 0.00 0.00 0.00 0.00 0.00 0.00 0.00 0.01 0.00 0.00 0.00 0.00 0.00 0.00 0.00 0.00 0.00 0.00 0.00 0.00 0.00 0.00 0.00 0.00 0.00 0.00 0.00 0.00 0.00 0.00 0.00 0.00 0.00 0.00 0.00 0.00 0.00 0.00 0.00 0.04 0.08 0.08 0.02 0.03
-1.70 -0.67 -0.35 -0.01 1.36 1.36 1.61 2.18 2.83 2.83 2.81 2.19 1.73 1.73 1.75 0.67 0.67 0.71 0.81 1.35 1.35 1.80 1.83 0.79 0.41 0.41 0.22 0.08 0.09 0.09 0.13 0.13 0.10 0.10 0.05 0.02 0.02 0.01 0.00 0.00 0.00 0.00 0.00 0.00 0.00 0.00 0.00 0.00 0.00 0.00 0.00 0.00 0.00 0.00 0.00 0.00 0.00 0.00 0.00 0.00 0.00 0.00 0.00 0.00 0.00 0.00 0.01 0.00 0.00 0.00 0.00 0.00 0.00 0.00 0.00 0.00 0.00 0.00 0.00 0.00 0.00 0.00 0.00 0.00 0.00 0.00 0.00 0.00 0.00 0.00 0.00 0.00 0.00 0.00 0.00 0.00 0.00 0.00 0.03 0.08 0.08 0.07 0.04
-2.08 -1.21 -0.76 -0.35 1.09 1.09 1.41 1.54 2.17 2.17 2.56 2.73 2.24 2.24 2.15 1.21 1.21 1.05 1.06 1.50 1.50 1.82 1.81 1.22 0.61 0.61 0.23 0.07 0.11 0.11 0.11 0.17 0.13 0.13 0.08 0.02 0.02 0.01 0.00 0.01 0.01 0.00 0.00 0.00 0.00 0.00 0.00 0.00 0.00 0.00 0.00 0.00 0.00 0.00 0.00 0.00 0.00 -0.00 0.00 0.00 0.00 0.00 0.00 0.00 0.00 0.00 0.00 0.00 0.00 0.00 0.00 0.00 0.00 0.00 0.00 0.00 0.00 0.00 0.00 0.00 0.00 0.00 0.00 0.00 0.00 0.00 0.00 0.00 0.00 0.00 0.00 0.00 0.00 0.00 0.00 -0.01 -0.01 0.00 0.00 0.06 0.06 0.08 0.04
-2.26 -1.82 -1.30 -0.74 0.77 0.77 1.31 1.42 1.92 1.92 2.28 2.58 2.21 2.21 2.13 1.73 1.73 1.36 1.29 1.44 1.44 1.62 1.72 1.47 1.08 1.08 0.40 0.04 0.09 0.09 0.13 0.15 0.16 0.16 0.07 0.01 0.01 0.00 0.00 0.01 0.01 0.00 0.00 0.00 0.00 0.00 0.00 0.00 0.00 0.00 0.00 0.00 0.00 0.00 0.00 0.00 0.00 0.00 0.00 0.00 0.00 0.00 0.00 0.00 0.00 0.00 0.00 0.00 0.00 0.00 0.00 0.00 0.00 0.00 0.00 0.00 0.00 0.00 0.00 0.00 0.00 0.00 0.00 0.00 0.00 0.00 0.00 0.00 0.00 0.00 0.00 0.00 0.00 0.00 -0.00 0.00 0.00 0.00 0.00 0.00 0.00 0.09 0.05
-2.06 -2.06 -1.77 -1.27 0.33 0.33 1.04 1.34 1.73 1.73 2.19 2.30 2.07 2.07 1.99 1.74 1.74 1.21 1.21 1.28 1.28 1.43 1.59 1.72 1.22 1.22 0.72 0.16 0.05 0.05 0.12 0.13 0.12 0.12 0.05 0.02 0.02 0.00 0.00 0.00 0.00 0.00 0.00 0.00 0.00 0.00 0.00 0.00 0.00 0.00 0.00 0.00 0.00 0.00 0.00 0.00 0.00 0.00 0.00 0.00 0.00 0.00 0.00 0.00 0.00 0.00 0.00 0.00 0.00 0.00 0.00 0.00 0.00 0.00 0.00 0.00 0.00 0.00 0.00 0.01 0.01 0.01 0.00 0.00 0.00 0.00 0.00 0.00 0.00 0.00 0.00 0.00 0.00 0.00 0.00 0.00 0.00 0.00 0.00 0.00 0.00 0.03 0.07
-1.63 -1.95 -1.91 -1.65 -0.11 -0.11 0.62 1.14 1.49 1.49 1.90 1.61 1.60 1.60 1.65 1.55 1.55 1.17 1.12 1.14 1.14 1.19 1.45 1.61 1.33 1.33 0.98 0.48 0.08 0.08 0.12 0.16 0.10 0.10 0.05 0.01 0.01 0.00 0.00 0.00 0.00 0.00 0.00 0.00 0.00 0.00 0.00 0.00 0.00 0.00 0.00 0.00 0.00 0.00 0.00 0.00 0.00 0.00 0.00 0.00 0.00 0.00 0.00 0.00 0.00 0.00 0.00 0.00 0.00 0.00 0.00 0.00 0.00 0.00 0.00 0.00 0.00 0.00 0.00 0.02 0.02 0.03 0.02 0.02 0.01 0.01 0.01 0.01 0.00 0.00 0.00 0.00 0.00 0.00 0.00 0.00 0.00 0.00 0.00 0.00 0.00 0.01 0.07
-1.41 -1.59 -1.60 -1.59 -0.58 -0.58 0.16 0.84 1.25 1.25 1.47 1.16 1.14 1.14 1.34 1.27 1.27 1.04 0.96 1.02 1.02 0.97 1.13 1.37 1.40 1.40 1.05 0.70 0.14 0.14 0.12 0.17 0.16 0.16 0.09 0.01 0.01 0.01 0.01 0.00 0.00 0.00 0.00 0.00 0.00 0.00 0.00 0.00 0.00 0.00 0.00 0.00 0.00 0.00 0.00 0.00 0.00 0.00 0.00 0.00 0.00 -0.00 -0.00 0.00 0.00 0.00 0.00 0.00 0.00 0.00 0.00 0.00 0.00 0.00 0.00 0.00 0.00 0.00 0.00 0.00 0.00 0.03 0.03 0.03 -0.00 -0.00 0.01 -0.00 -0.02 -0.02 0.00 0.00 0.00 0.00 0.00 0.00 0.00 0.00 0.00 0.00 0.00 0.00 0.05
-1.23 -1.30 -1.25 -1.25 -1.19 -1.19 -0.40 0.40 0.94 0.94 0.84 0.93 0.90 0.90 0.98 0.98 0.98 0.91 0.80 0.89 0.89 0.82 0.98 1.04 1.16 1.16 1.08 0.77 0.49 0.49 0.16 0.18 0.17 0.17 0.11 0.03 0.03 0.01 0.02 0.01 0.01 0.00 0.00 0.00 0.00 0.00 0.00 0.00 0.00 0.00 0.00 0.00 0.00 0.00 0.00 0.00 0.00 0.00 0.00 -0.00 -0.00 -0.00 0.00 0.00 0.00 0.00 0.00 0.00 0.00 0.00 0.00 0.00 0.00 0.00 0.00 0.00 0.00 0.00 0.00 0.00 0.00 0.03 0.03 0.00 0.01 0.01 -0.07 -0.12 -0.08 -0.08 -0.02 0.01 0.00 0.00 0.00 -0.03 -0.03 0.00 0.00 0.00 0.00 0.00 -0.02
-1.12 -0.98 -1.03 -0.93 -0.86 -0.86 -0.84 -0.46 -0.14 -0.14 0.52 0.65 0.76 0.76 0.63 0.57 0.57 0.65 0.62 0.71 0.71 0.80 0.77 1.00 1.21 1.21 1.33 1.16 0.81 0.81 0.53 0.31 0.26 0.26 0.14 0.04 0.04 0.02 0.02 0.05 0.05 0.04 0.02 0.00 0.00 0.00 0.00 0.00 0.00 0.00 0.00 0.00 0.00 0.00 0.00 0.00 0.00 0.00 0.00 0.00 0.00 0.00 0.00 0.00 0.00 0.00 0.00 0.00 0.00 0.00 0.00 0.00 0.00 0.00 0.00 0.00 0.00 0.00 0.00 0.00 0.00 0.00 0.00 0.00 -0.02 -0.02 -0.00 -0.01 0.01 0.01 0.02 -0.07 -0.11 -0.11 -0.12 -0.17 -0.17 -0.16 -0.16 -0.20 -0.20 -0.12 -0.12
-1.08 -0.97 -0.92 -0.92 -0.81 -0.81 -0.77 -0.65 -0.23 -0.23 0.42 0.53 0.57 0.57 0.71 0.57 0.57 0.65 0.72 0.71 0.71 0.83 0.95 1.02 1.20 1.20 1.31 1.30 0.95 0.95 0.70 0.38 0.31 0.31 0.18 0.04 0.04 0.02 0.01 0.03 0.03 0.03 0.02 0.01 0.00 0.00 0.00 0.00 0.00 0.00 0.00 0.00 0.00 0.00 0.00 0.00 0.00 0.00 0.00 0.00 0.00 0.00 0.00 0.00 0.00 0.00 0.00 0.00 0.00 0.00 0.00 0.00 0.00 0.00 0.00 0.00 0.00 0.00 0.00 0.00 0.00 0.00 0.00 0.00 -0.01 -0.01 -0.01 -0.02 0.01 0.01 0.01 -0.11 -0.09 -0.09 -0.13 -0.12 -0.12 -0.12 -0.18 -0.16 -0.16 -0.13 -0.11
-1.23 -1.08 -0.81 -0.89 -0.93 -0.93 -0.82 -0.76 -0.58 -0.58 0.02 0.52 0.53 0.53 0.57 0.70 0.70 0.70 0.78 0.87 0.87 0.88 0.98 1.19 1.33 1.33 1.37 1.17 1.00 1.00 0.77 0.53 0.34 0.34 0.25 0.14 0.14 0.03 0.03 0.04 0.04 0.02 0.00 0.00 0.00 0.00 0.00 0.00 0.00 0.00 0.00 0.00 0.00 0.00 0.00 0.00 0.00 0.00 0.00 0.00 0.00 0.00 0.00 0.00 0.00 0.00 0.00 0.00 0.00 0.00 0.00 0.00 0.00 0.00 0.00 0.00 0.00 0.00 0.00 0.00 0.00 0.00 0.00 0.00 -0.01 -0.01 -0.00 0.00 -0.00 -0.00 -0.03 -0.06 -0.09 -0.09 -0.07 -0.11 -0.11 -0.11 -0.15 -0.10 -0.10 -0.07 -0.06
-1.54 -1.31 -0.86 -0.86 -0.98 -0.98 -0.99 -0.89 -0.81 -0.81 -0.49 0.51 0.62 0.62 0.61 0.77 0.77 0.84 0.86 1.01 1.01 1.02 1.01 1.21 1.39 1.39 1.49 1.43 1.01 1.01 0.88 1.00 0.56 0.56 0.31 0.18 0.18 0.06 0.05 0.04 0.04 0.01 0.00 0.00 0.00 0.00 0.00 0.00 0.00 0.00 0.00 0.00 0.00 0.00 0.00 0.00 0.00 0.00 0.00 0.00 0.00 0.00 0.00 0.00 0.00 0.00 0.00 0.00 0.00 0.00 0.00 0.00 0.00 0.00 0.00 0.00 0.00 0.00 0.00 0.00 0.00 0.00 0.00 0.00 -0.00 -0.00 0.00 0.00 -0.02 -0.02 -0.04 -0.06 -0.10 -0.10 -0.11 -0.11 -0.11 -0.12 -0.12 -0.05 -0.05 -0.05 -0.03
-1.91 -1.64 -1.31 -0.84 -0.88 -0.88 -0.92 -1.01 -0.93 -0.93 -0.67 -0.09 0.25 0.25 0.56 0.77 0.77 0.89 0.92 0.89 0.89 0.84 0.95 0.97 1.37 1.37 1.57 1.69 1.26 1.26 1.19 1.18 1.02 1.02 0.41 0.25 0.25 0.15 0.05 0.03 0.03 0.04 0.00 0.00 0.01 0.01 0.00 0.00 0.00 0.00 0.00 0.00 0.00 0.00 0.00 0.00 0.00 0.00 0.00 0.00 0.00 0.00 0.00 0.00 0.00 0.00 0.00 0.00 0.00 0.00 0.00 0.00 0.00 0.00 0.00 0.00 0.00 0.00 0.00 0.00 0.00 0.00 0.00 0.00 0.00 0.00 0.00 0.00 -0.01 -0.01 -0.02 -0.06 -0.08 -0.08 -0.12 -0.10 -0.10 -0.09 -0.10 -0.03 -0.03 -0.02 -0.02
-1.89 -1.93 -1.78 -1.09 -0.91 -0.91 -1.08 -1.00 -1.00 -1.00 -0.90 -0.29 -0.17 -0.17 0.02 0.47 0.47 0.87 0.93 0.91 0.91 0.70 0.73 0.90 1.22 1.22 1.54 1.79 1.68 1.68 1.31 1.16 1.06 1.06 0.51 0.35 0.35 0.24 0.07 0.09 0.09 0.10 0.08 0.00 0.01 0.01 0.00 0.00 0.00 0.00 0.00 -0.00 0.00 0.00 0.00 0.00 0.00 0.00 0.00 0.00 0.00 0.00 0.00 0.00 0.00 0.00 0.00 0.00 0.00 0.00 0.00 0.00 0.00 0.00 0.00 0.00 0.00 0.00 0.00 0.00 0.00 0.00 0.00 0.00 0.00 0.00 0.00 -0.00 -0.02 -0.02 -0.01 -0.02 -0.06 -0.06 -0.09 -0.03 -0.03 -0.03 -0.04 -0.02 -0.02 -0.02 -0.01
-1.52 -1.93 -2.15 -1.61 -1.85 -1.85 -1.62 -1.07 -1.00 -1.00 -1.05 -0.89 -0.21 -0.21 -0.17 -0.07 -0.07 0.59 0.83 0.94 0.94 0.78 0.72 0.80 0.99 0.99 1.48 1.70 1.73 1.73 1.34 1.11 1.04 1.04 0.56 0.42 0.42 0.33 0.20 0.12 0.12 0.10 0.08 0.01 0.00 0.00 0.00 0.09 0.06 0.06 0.03 0.01 -0.01 -0.01 -0.01 -0.01 -0.01 0.00 0.00 0.00 0.00 0.00 0.00 0.00 0.00 0.00 0.00 0.00 0.00 0.00 0.00 0.00 0.00 0.00 0.00 0.00 0.00 0.00 0.00 0.00 0.00 0.00 0.00 0.00 0.00 0.00 0.00 0.00 -0.01 -0.01 -0.00 -0.02 -0.02 -0.02 -0.04 -0.01 -0.01 -0.01 -0.02 -0.01 -0.01 -0.01 -0.01
-1.21 -1.66 -2.07 -2.44 -2.35 -2.35 -2.09 -1.86 -1.27 -1.27 -1.05 -0.93 -0.42 -0.42 -0.31 -0.28 -0.28 0.00 0.30 0.16 0.16 0.42 0.72 0.73 0.80 0.80 1.39 1.62 1.69 1.69 1.36 1.04 0.98 0.98 0.94 0.42 0.42 0.32 0.25 0.14 0.14 0.09 0.06 0.03 0.03 0.03 0.09 0.07 0.07 0.07 0.07 0.06 0.01 0.01 0.02 -0.01 -0.01 -0.01 -0.01 0.00 0.00 0.00 0.00 0.00 0.00 0.00 0.00 0.00 0.00 0.00 0.00 0.00 0.00 0.00 0.00 0.00 0.00 0.00 0.00 0.00 0.00 0.00 0.00 0.00 0.00 0.00 0.00 0.00 0.00 0.00 -0.00 -0.01 -0.01 -0.01 -0.02 -0.00 -0.00 -0.01 -0.01 0.00 0.00 -0.01 -0.00
-0.89 -1.25 -1.26 -2.05 -2.30 -2.30 -2.22 -2.08 -1.77 -1.77 -1.35 -1.04 -0.75 -0.75 -0.48 -0.43 -0.43 -0.33 -0.06 0.21 0.21 0.31 0.50 0.56 0.63 0.63 1.27 1.52 1.54 1.54 1.49 1.06 0.93 0.93 0.91 0.36 0.36 0.23 0.20 0.11 0.11 0.11 0.07 0.04 0.06 0.06 0.09 0.04 0.05 0.05 0.08 0.09 0.09 0.09 0.11 0.03 0.03 -0.00 -0.01 -0.01 -0.01 -0.02 -0.01 0.00 0.00 0.00 0.00 0.00 0.00 0.00 0.00 0.00 0.00 0.00 0.00 0.00 0.00 0.00 0.00 0.00 0.00 0.00 0.00 0.00 0.00 0.00 0.00 0.00 0.01 0.01 -0.00 -0.00 0.01 0.01 0.01 0.01 0.01 -0.00 -0.00 0.01 0.01 0.01 0.00
-0.57 -0.88 -0.88 -1.22 -1.86 -1.86 -2.08 -2.09 -2.05 -2.05 -1.83 -1.48 -0.98 -0.98 -0.67 -0.57 -0.57 -0.44 0.15 0.26 0.26 0.35 0.31 0.29 0.40 0.40 0.64 1.39 1.48 1.48 1.50 1.14 0.95 0.95 0.75 0.55 0.55 0.21 0.15 0.20 0.20 0.17 0.09 0.06 0.11 0.11 0.04 0.03 0.02 0.02 0.04 0.11 0.11 0.11 0.10 0.09 0.09 0.02 0.00 0.00 0.00 -0.01 -0.01 -0.02 0.00 0.00 0.00 0.00 0.00 0.00 0.00 0.00 0.00 0.00 0.00 0.00 0.00 0.00 0.00 0.00 0.00 0.00 0.00 0.00 0.00 0.00 0.00 0.00 0.01 0.01 -0.00 -0.00 0.02 0.02 0.03 0.01 0.01 0.00 0.01 0.02 0.02 0.02 0.01
-0.52 -0.53 -0.67 -0.86 -1.39 -1.39 -1.57 -1.74 -1.98 -1.98 -1.99 -1.87 -1.59 -1.59 -0.96 -0.65 -0.65 -0.46 -0.18 0.06 0.06 0.14 0.37 0.33 0.22 0.22 0.39 1.09 1.40 1.40 1.34 1.24 1.02 1.02 0.78 0.55 0.55 0.39 0.51 0.45 0.45 0.26 0.07 0.04 0.05 0.05 0.01 0.02 0.02 0.02 0.03 0.06 0.08 0.08 0.07 0.06 0.06 0.02 0.00 0.00 0.00 0.00 0.01 0.01 -0.02 -0.02 -0.02 -0.01 0.00 0.00 0.00 0.00 0.00 0.00 0.00 0.00 0.00 0.00 0.00 0.00 0.00 0.00 0.00 0.00 0.00 0.00 0.00 0.00 0.00 0.00 0.00 -0.00 0.00 0.00 0.02 0.00 0.00 0.00 0.01 0.01 0.01 0.02 0.01
-0.22 -0.36 -0.52 -0.64 -1.01 -1.01 -1.25 -1.39 -1.39 -1.39 -1.78 -1.83 -1.61 -1.61 -1.09 -0.94 -0.94 -0.71 -0.80 -0.32 -0.32 -0.04 0.08 0.55 0.43 0.43 0.26 0.45 0.77 0.77 0.99 1.00 1.00 1.00 0.94 0.62 0.62 0.48 0.37 0.25 0.25 0.16 0.09 0.02 0.02 0.02 0.00 0.00 0.01 0.01 0.01 0.03 0.07 0.07 0.06 0.05 0.05 0.03 0.00 0.00 0.00 0.00 0.00 0.01 -0.00 -0.00 0.00 -0.01 -0.02 -0.02 -0.01 -0.02 -0.01 -0.01 0.00 0.00 0.00 0.00 0.00 0.00 0.00 0.00 0.00 0.00 0.00 0.00 0.00 0.00 0.01 0.01 0.00 0.00 0.00 0.00 0.03 0.03 0.03 0.00 0.01 0.01 0.01 0.02 0.02
0.02 -0.22 -0.35 -0.44 -0.70 -0.70 -0.89 -1.13 -1.20 -1.20 -1.30 -1.55 -1.70 -1.70 -1.28 -1.23 -1.23 -1.29 -1.11 -0.72 -0.72 -0.36 -0.14 0.11 0.74 0.74 0.53 0.33 0.42 0.42 0.71 0.76 0.81 0.81 0.86 0.69 0.69 0.49 0.31 0.21 0.21 0.22 0.17 0.04 0.01 0.01 0.00 0.00 0.01 0.01 0.00 0.01 0.04 0.04 0.05 0.03 0.03 0.03 0.01 0.01 0.01 0.00 0.00 0.00 0.00 0.00 0.00 0.00 0.00 0.00 -0.02 0.00 -0.02 -0.02 -0.02 0.00 0.00 -0.01 0.00 0.00 0.00 0.00 0.00 0.00 0.00 0.00 0.00 0.00 0.01 0.01 0.00 0.00 0.00 0.00 0.02 0.03 0.03 0.01 0.01 0.01 0.01 0.02 0.02
-0.05 -0.10 -0.20 -0.32 -0.34 -0.34 -0.50 -0.76 -1.05 -1.05 -1.05 -1.23 -1.49 -1.49 -1.57 -1.38 -1.38 -1.30 -1.34 -1.02 -1.02 -0.81 -0.48 -0.25 0.58 0.58 0.67 0.42 0.40 0.40 0.42 0.58 0.61 0.61 0.71 0.66 0.66 0.48 0.55 0.24 0.24 0.28 0.25 0.16 0.00 0.00 0.00 -0.00 -0.01 -0.01 0.00 0.00 0.02 0.02 0.03 0.02 0.02 0.02 0.01 0.01 0.01 0.00 0.00 0.00 0.00 0.00 0.00 0.02 0.05 0.05 0.00 0.00 0.00 0.00 0.00 0.00 0.00 -0.00 0.00 0.01 0.01 0.01 0.00 0.00 0.00 0.00 0.00 0.00 0.00 0.00 0.00 0.00 0.00 0.00 0.03 0.03 0.03 0.02 0.00 0.01 0.01 0.02 0.02
-0.07 -0.07 -0.12 -0.16 -0.25 -0.25 -0.25 -0.36 -0.65 -0.65 -1.00 -0.98 -1.17 -1.17 -1.35 -1.00 -1.00 -1.16 -1.34 -1.51 -1.51 -1.23 -0.93 -0.65 0.05 0.05 0.38 0.31 0.39 0.39 0.25 0.33 0.47 0.47 0.52 0.53 0.53 0.45 0.66 0.56 0.56 0.08 0.08 0.06 0.00 0.00 0.00 -0.00 -0.02 -0.02 0.01 0.00 0.00 0.00 0.01 0.01 0.01 0.01 0.01 0.01 0.01 0.01 0.00 0.00 0.00 0.00 0.00 0.02 0.04 0.04 0.00 0.00 0.00 0.00 0.00 0.00 0.00 0.00 0.00 0.00 0.00 0.00 0.00 0.00 0.00 0.00 0.01 0.00 0.00 0.00 0.00 0.00 0.00 0.00 0.00 0.02 0.02 0.02 0.00 0.01 0.01 0.01 0.03
-0.12 -0.07 -0.06 -0.09 -0.16 -0.16 -0.22 -0.19 -0.27 -0.27 -0.55 -0.88 -0.93 -0.93 -1.01 -0.83 -0.83 -0.80 -0.99 -1.30 -1.30 -1.45 -1.26 -1.07 -0.88 -0.88 0.02 0.08 0.19 0.19 0.31 0.16 0.26 0.26 0.40 0.45 0.45 0.38 0.46 0.55 0.55 0.06 0.02 0.01 -0.00 -0.00 0.00 0.00 0.00 0.00 0.00 0.00 0.00 0.00 0.00 0.01 0.01 0.00 0.00 0.00 0.00 0.01 0.00 0.00 0.00 0.00 0.00 0.00 0.01 0.01 0.01 0.00 0.00 0.00 0.00 0.00 0.00 0.00 0.00 0.00 0.00 0.00 0.00 0.00 0.00 0.00 0.00 0.00 0.01 0.01 0.00 0.01 0.00 0.00 0.01 0.01 0.01 0.03 0.00 0.01 0.01 0.01 0.03
-0.16 -0.14 -0.07 -0.06 -0.08 -0.08 -0.24 -0.20 -0.16 -0.16 -0.22 -0.65 -0.81 -0.81 -0.74 -0.78 -0.78 -0.62 -0.60 -0.73 -0.73 -1.27 -1.40 -1.29 -1.20 -1.20 -0.39 -0.12 0.07 0.07 0.03 0.06 0.12 0.12 0.22 0.41 0.41 0.26 0.36 0.47 0.47 0.53 0.15 0.05 0.09 0.09 0.01 0.01 0.00 0.00 0.00 -0.00 0.00 0.00 0.00 0.00 0.00 0.00 0.00 0.00 0.00 0.01 0.02 0.00 0.00 0.00 0.00 0.00 0.00 0.00 0.00 0.00 0.01 0.01 0.00 0.00 0.00 0.00 0.00 0.00 0.00 0.00 0.00 0.00 0.00 0.00 0.00 0.00 0.00 0.00 0.00 0.00 0.00 0.00 0.00 0.00 0.00 0.02 0.02 0.02 0.02 0.01 0.02
-0.15 -0.17 -0.11 -0.07 -0.02 -0.02 -0.09 -0.18 -0.19 -0.19 -0.15 -0.37 -0.58 -0.58 -0.48 -0.56 -0.56 -0.45 -0.43 -0.44 -0.44 -0.53 -0.95 -1.23 -1.18 -1.18 -0.67 -0.36 -0.29 -0.29 -0.27 -0.21 -0.06 -0.06 0.05 0.20 0.20 0.07 0.25 0.40 0.40 0.48 0.49 0.20 0.16 0.16 0.05 0.00 0.00 0.00 0.00 0.00 0.00 0.00 0.00 0.00 0.00 0.00 0.00 0.00 0.00 0.00 0.02 0.01 0.00 0.00 0.00 0.00 0.00 0.00 0.00 0.00 0.01 0.01 0.02 0.02 0.02 0.00 0.00 0.00 0.00 0.00 0.00 0.00 0.00 0.00 0.00 0.00 0.00 0.00 0.00 0.00 0.00 0.00 0.00 0.00 0.00 0.01 0.02 0.02 0.02 0.02 0.02
-0.12 -0.15 -0.13 -0.07 0.00 0.00 0.04 -0.01 -0.10 -0.10 -0.16 -0.22 -0.35 -0.35 -0.30 -0.35 -0.35 -0.34 -0.35 -0.34 -0.34 -0.29 -0.47 -0.65 -0.78 -0.78 -0.38 -0.41 -0.45 -0.45 -0.48 -0.50 -0.07 -0.07 -0.05 -0.00 -0.00 -0.08 0.13 0.29 0.29 0.33 0.38 0.29 0.31 0.31 0.15 0.02 0.01 0.01 0.00 0.00 -0.02 -0.02 -0.02 0.00 0.00 0.00 0.00 0.00 0.00 0.00 0.00 0.01 0.00 0.00 0.00 0.00 0.00 0.00 -0.00 0.00 0.00 0.00 0.01 0.01 0.01 0.01 0.00 0.00 0.00 0.00 0.00 0.00 0.00 0.00 0.00 0.00 0.00 0.00 0.00 0.00 0.00 0.00 0.00 0.00 0.00 0.00 0.04 0.03 0.03 0.03 0.01